Time,TemperatureF,DewpointF,PressureIn,WindDirection,WindDirectionDegrees,WindSpeedMPH,WindSpeedGustMPH,Humidity,HourlyPrecipIn,Conditions,Clouds,dailyrainin,SoftwareType,DateUTC
2013-02-22 00:01:00,13.8,5.6,29.76,North,0,0.0,0.0,69,0.00,,SKC,0.00,VWS V13.00,2013-02-22 07:01:00,
2013-02-22 00:06:00,13.8,5.6,29.76,North,0,0.0,0.0,69,0.00,,SKC,0.00,VWS V13.00,2013-02-22 07:06:00,
2013-02-22 00:11:00,13.8,5.6,29.76,North,0,0.0,0.0,69,0.00,,SKC,0.00,VWS V13.00,2013-02-22 07:11:00,
2013-02-22 00:16:00,13.8,5.6,29.76,North,0,0.0,0.0,69,0.00,,SKC,0.00,VWS V13.00,2013-02-22 07:16:00,
2013-02-22 00:21:00,14.2,6.5,29.76,North,0,0.0,0.0,71,0.00,,SKC,0.00,VWS V13.00,2013-02-22 07:21:00,
2013-02-22 00:26:00,14.5,7.2,29.76,North,0,0.0,0.0,72,0.00,,SKC,0.00,VWS V13.00,2013-02-22 07:26:00,
2013-02-22 00:31:00,14.9,7.5,29.76,North,0,0.0,0.0,72,0.00,,SKC,0.00,VWS V13.00,2013-02-22 07:31:00,
2013-02-22 00:36:00,15.1,8.0,29.76,North,0,0.0,0.0,73,0.00,,SKC,0.00,VWS V13.00,2013-02-22 07:36:00,
2013-02-22 00:41:00,15.1,7.7,29.76,North,0,0.0,0.0,72,0.00,,SKC,0.00,VWS V13.00,2013-02-22 07:41:00,
2013-02-22 00:47:00,15.1,7.7,29.76,North,0,0.0,0.0,72,0.00,,SKC,0.00,VWS V13.00,2013-02-22 07:47:00,
2013-02-22 00:51:00,14.7,7.0,29.76,North,0,0.0,0.0,71,0.00,,SKC,0.00,VWS V13.00,2013-02-22 07:51:00,
2013-02-22 00:57:00,14.4,6.4,29.76,North,0,0.0,0.0,70,0.00,,SKC,0.00,VWS V13.00,2013-02-22 07:57:00,
2013-02-22 01:02:00,14.2,6.2,29.76,North,0,0.0,0.0,70,0.00,,SKC,0.00,VWS V13.00,2013-02-22 08:02:00,
2013-02-22 01:07:00,14.2,6.2,29.76,North,0,0.0,0.0,70,0.00,,SKC,0.00,VWS V13.00,2013-02-22 08:07:00,
2013-02-22 01:12:00,14.2,6.2,29.76,North,0,0.0,0.0,70,0.00,,SKC,0.00,VWS V13.00,2013-02-22 08:12:00,
2013-02-22 01:17:00,14.4,6.4,29.76,North,0,0.0,0.0,70,0.00,,SKC,0.00,VWS V13.00,2013-02-22 08:17:00,
2013-02-22 01:22:00,14.5,6.6,29.76,North,0,0.0,0.0,70,0.00,,SKC,0.00,VWS V13.00,2013-02-22 08:22:00,
2013-02-22 01:27:00,14.5,6.6,29.76,North,0,0.0,0.0,70,0.00,,SKC,0.00,VWS V13.00,2013-02-22 08:27:00,
2013-02-22 01:32:00,14.7,6.7,29.76,North,0,0.0,0.0,70,0.00,,SKC,0.00,VWS V13.00,2013-02-22 08:32:00,
2013-02-22 01:37:00,14.9,6.9,29.76,North,0,0.0,0.0,70,0.00,,SKC,0.00,VWS V13.00,2013-02-22 08:37:00,
2013-02-22 01:42:00,14.9,6.9,29.76,North,0,0.0,0.0,70,0.00,,SKC,0.00,VWS V13.00,2013-02-22 08:42:00,
2013-02-22 01:47:00,15.1,7.1,29.76,North,0,0.0,0.0,70,0.00,,SKC,0.00,VWS V13.00,2013-02-22 08:47:00,
2013-02-22 01:52:00,15.1,7.1,29.76,North,0,0.0,0.0,70,0.00,,SKC,0.00,VWS V13.00,2013-02-22 08:52:00,
2013-02-22 01:57:00,15.3,6.9,29.76,North,0,0.0,0.0,69,0.00,,SKC,0.00,VWS V13.00,2013-02-22 08:57:00,
2013-02-22 02:02:00,15.3,6.9,29.76,North,0,0.0,0.0,69,0.00,,SKC,0.00,VWS V13.00,2013-02-22 09:02:00,
2013-02-22 02:08:00,15.4,7.1,29.76,North,0,0.0,0.0,69,0.00,,SKC,0.00,VWS V13.00,2013-02-22 09:08:00,
2013-02-22 02:13:00,15.4,7.1,29.76,North,0,0.0,0.0,69,0.00,,SKC,0.00,VWS V13.00,2013-02-22 09:13:00,
2013-02-22 02:18:00,15.8,7.4,29.76,North,0,0.0,0.0,69,0.00,,SKC,0.00,VWS V13.00,2013-02-22 09:18:00,
2013-02-22 02:23:00,15.8,7.4,29.76,North,0,0.0,0.0,69,0.00,,SKC,0.00,VWS V13.00,2013-02-22 09:23:00,
2013-02-22 02:28:00,16.2,7.8,29.76,North,0,0.0,0.0,69,0.00,,SKC,0.00,VWS V13.00,2013-02-22 09:28:00,
2013-02-22 02:33:00,16.5,8.5,29.76,North,0,0.0,0.0,70,0.00,,SKC,0.00,VWS V13.00,2013-02-22 09:33:00,
2013-02-22 02:38:00,16.7,8.6,29.76,North,0,0.0,0.0,70,0.00,,SKC,0.00,VWS V13.00,2013-02-22 09:38:00,
2013-02-22 02:43:00,16.9,8.8,29.76,North,0,0.0,0.0,70,0.00,,SKC,0.00,VWS V13.00,2013-02-22 09:43:00,
2013-02-22 02:48:00,17.1,9.0,29.76,North,0,0.0,0.0,70,0.00,,SKC,0.00,VWS V13.00,2013-02-22 09:48:00,
2013-02-22 02:53:00,17.4,9.3,29.76,North,0,0.0,0.0,70,0.00,,SKC,0.00,VWS V13.00,2013-02-22 09:53:00,
2013-02-22 02:58:00,17.6,9.5,29.76,North,0,0.0,0.0,70,0.00,,SKC,0.00,VWS V13.00,2013-02-22 09:58:00,
2013-02-22 03:03:00,17.8,9.4,29.76,North,0,0.0,0.0,69,0.00,,SKC,0.00,VWS V13.00,2013-02-22 10:03:00,
2013-02-22 03:08:00,18.1,9.7,29.76,North,0,0.0,0.0,69,0.00,,SKC,0.00,VWS V13.00,2013-02-22 10:08:00,
2013-02-22 03:13:00,18.3,9.9,29.76,North,0,0.0,0.0,69,0.00,,SKC,0.00,VWS V13.00,2013-02-22 10:13:00,
2013-02-22 03:18:00,18.7,10.2,29.76,North,0,0.0,0.0,69,0.00,,SKC,0.00,VWS V13.00,2013-02-22 10:18:00,
2013-02-22 03:23:00,18.7,9.9,29.76,North,0,0.0,0.0,68,0.00,,SKC,0.00,VWS V13.00,2013-02-22 10:23:00,
2013-02-22 03:28:00,18.9,10.1,29.76,North,0,0.0,0.0,68,0.00,,SKC,0.00,VWS V13.00,2013-02-22 10:28:00,
2013-02-22 03:33:00,18.7,9.6,29.76,North,0,0.0,0.0,67,0.00,,SKC,0.00,VWS V13.00,2013-02-22 10:33:00,
2013-02-22 03:38:00,18.7,9.6,29.76,North,0,0.0,0.0,67,0.00,,SKC,0.00,VWS V13.00,2013-02-22 10:38:00,
2013-02-22 03:43:00,18.5,9.4,29.76,North,0,0.0,0.0,67,0.00,,SKC,0.00,VWS V13.00,2013-02-22 10:43:00,
2013-02-22 03:49:00,18.7,9.6,29.76,North,0,0.0,0.0,67,0.00,,SKC,0.00,VWS V13.00,2013-02-22 10:49:00,
2013-02-22 03:54:00,18.7,9.6,29.76,North,0,0.0,0.0,67,0.00,,SKC,0.00,VWS V13.00,2013-02-22 10:54:00,
2013-02-22 03:59:00,18.9,9.7,29.76,North,0,0.0,0.0,67,0.00,,SKC,0.00,VWS V13.00,2013-02-22 10:59:00,
2013-02-22 04:04:00,18.9,9.7,29.76,North,0,0.0,0.0,67,0.00,,SKC,0.00,VWS V13.00,2013-02-22 11:04:00,
2013-02-22 04:09:00,19.0,9.9,29.76,North,0,0.0,0.0,67,0.00,,SKC,0.00,VWS V13.00,2013-02-22 11:09:00,
2013-02-22 04:14:00,19.0,10.2,29.76,North,0,0.0,0.0,68,0.00,,SKC,0.00,VWS V13.00,2013-02-22 11:14:00,
2013-02-22 04:19:00,19.2,10.4,29.76,North,0,0.0,0.0,68,0.00,,SKC,0.00,VWS V13.00,2013-02-22 11:19:00,
2013-02-22 04:24:00,19.4,10.6,29.76,North,0,0.0,0.0,68,0.00,,SKC,0.00,VWS V13.00,2013-02-22 11:24:00,
2013-02-22 04:29:00,19.4,10.6,29.76,North,0,0.0,0.0,68,0.00,,SKC,0.00,VWS V13.00,2013-02-22 11:29:00,
2013-02-22 04:34:00,19.2,10.4,29.76,North,0,0.0,0.0,68,0.00,,SKC,0.00,VWS V13.00,2013-02-22 11:34:00,
2013-02-22 04:39:00,18.9,10.1,29.76,North,0,0.0,0.0,68,0.00,,SKC,0.00,VWS V13.00,2013-02-22 11:39:00,
2013-02-22 04:44:00,18.3,9.2,29.76,North,0,0.0,0.0,67,0.00,,SKC,0.00,VWS V13.00,2013-02-22 11:44:00,
2013-02-22 04:49:00,18.1,9.4,29.76,North,0,0.0,0.0,68,0.00,,SKC,0.00,VWS V13.00,2013-02-22 11:49:00,
2013-02-22 04:54:00,17.8,9.0,29.76,North,0,0.0,0.0,68,0.00,,SKC,0.00,VWS V13.00,2013-02-22 11:54:00,
2013-02-22 04:59:00,17.6,9.2,29.73,North,0,0.0,0.0,69,0.00,,SKC,0.00,VWS V13.00,2013-02-22 11:59:00,
2013-02-22 05:04:00,17.6,9.5,29.73,North,0,0.0,0.0,70,0.00,,SKC,0.00,VWS V13.00,2013-02-22 12:04:00,
2013-02-22 05:09:00,17.8,9.7,29.73,North,0,0.0,0.0,70,0.00,,SKC,0.00,VWS V13.00,2013-02-22 12:09:00,
2013-02-22 05:14:00,17.8,9.4,29.76,North,0,0.0,0.0,69,0.00,,SKC,0.00,VWS V13.00,2013-02-22 12:14:00,
2013-02-22 05:19:00,17.4,9.0,29.76,North,0,0.0,0.0,69,0.00,,SKC,0.00,VWS V13.00,2013-02-22 12:19:00,
2013-02-22 05:24:00,16.7,8.0,29.76,North,0,0.0,0.0,68,0.00,,SKC,0.00,VWS V13.00,2013-02-22 12:24:00,
2013-02-22 05:29:00,16.3,7.6,29.76,North,0,0.0,0.0,68,0.00,,SKC,0.00,VWS V13.00,2013-02-22 12:29:00,
2013-02-22 05:34:00,16.2,7.5,29.76,North,0,0.0,0.0,68,0.00,,SKC,0.00,VWS V13.00,2013-02-22 12:34:00,
2013-02-22 05:40:00,16.5,8.1,29.76,North,0,0.0,0.0,69,0.00,,SKC,0.00,VWS V13.00,2013-02-22 12:40:00,
2013-02-22 05:45:00,16.7,8.6,29.76,North,0,0.0,0.0,70,0.00,,SKC,0.00,VWS V13.00,2013-02-22 12:45:00,
2013-02-22 05:50:00,17.1,9.3,29.76,North,0,0.0,0.0,71,0.00,,SKC,0.00,VWS V13.00,2013-02-22 12:50:00,
2013-02-22 05:55:00,17.4,9.6,29.76,North,0,0.0,0.0,71,0.00,,SKC,0.00,VWS V13.00,2013-02-22 12:55:00,
2013-02-22 06:00:00,17.4,9.9,29.76,North,0,0.0,0.0,72,0.00,,SKC,0.00,VWS V13.00,2013-02-22 13:00:00,
2013-02-22 06:05:00,17.6,10.1,29.76,North,0,0.0,0.0,72,0.00,,SKC,0.00,VWS V13.00,2013-02-22 13:05:00,
2013-02-22 06:10:00,18.0,10.8,29.76,North,0,0.0,0.0,73,0.00,,SKC,0.00,VWS V13.00,2013-02-22 13:10:00,
2013-02-22 06:15:00,18.3,11.1,29.76,North,0,0.0,0.0,73,0.00,,SKC,0.00,VWS V13.00,2013-02-22 13:15:00,
2013-02-22 06:20:00,18.5,11.3,29.76,North,0,0.0,0.0,73,0.00,,SKC,0.00,VWS V13.00,2013-02-22 13:20:00,
2013-02-22 06:25:00,18.7,11.5,29.76,North,0,0.0,0.0,73,0.00,,SKC,0.00,VWS V13.00,2013-02-22 13:25:00,
2013-02-22 06:30:00,19.0,11.8,29.76,North,0,0.0,0.0,73,0.00,,SKC,0.00,VWS V13.00,2013-02-22 13:30:00,
2013-02-22 06:35:00,19.2,12.0,29.76,North,0,0.0,0.0,73,0.00,,SKC,0.00,VWS V13.00,2013-02-22 13:35:00,
2013-02-22 06:40:00,19.6,12.4,29.76,North,0,0.0,0.0,73,0.00,,SKC,0.00,VWS V13.00,2013-02-22 13:40:00,
2013-02-22 06:45:00,19.6,12.0,29.76,North,0,0.0,0.0,72,0.00,,SKC,0.00,VWS V13.00,2013-02-22 13:45:00,
2013-02-22 06:50:00,19.6,12.0,29.76,North,0,0.0,0.0,72,0.00,,SKC,0.00,VWS V13.00,2013-02-22 13:50:00,
2013-02-22 06:55:00,19.8,12.2,29.76,North,0,0.0,0.0,72,0.00,,SKC,0.00,VWS V13.00,2013-02-22 13:55:00,
2013-02-22 07:00:00,19.8,12.2,29.76,North,0,0.0,0.0,72,0.00,,SKC,0.00,VWS V13.00,2013-02-22 14:00:00,
2013-02-22 07:05:00,19.9,12.1,29.76,North,0,0.0,0.0,71,0.00,,SKC,0.00,VWS V13.00,2013-02-22 14:05:00,
2013-02-22 07:10:00,20.1,12.2,29.76,North,0,0.0,0.0,71,0.00,,SKC,0.00,VWS V13.00,2013-02-22 14:10:00,
2013-02-22 07:15:00,19.9,11.8,29.76,North,0,0.0,0.0,70,0.00,,SKC,0.00,VWS V13.00,2013-02-22 14:15:00,
2013-02-22 07:20:00,20.1,11.9,29.76,North,0,0.0,0.0,70,0.00,,SKC,0.00,VWS V13.00,2013-02-22 14:20:00,
2013-02-22 07:25:00,20.3,12.1,29.76,North,0,0.0,0.0,70,0.00,,SKC,0.00,VWS V13.00,2013-02-22 14:25:00,
2013-02-22 07:30:00,20.5,12.3,29.76,North,0,0.0,0.0,70,0.00,,SKC,0.00,VWS V13.00,2013-02-22 14:30:00,
2013-02-22 07:35:00,20.7,12.1,29.76,North,0,0.0,0.0,69,0.00,,SKC,0.00,VWS V13.00,2013-02-22 14:35:00,
2013-02-22 07:41:00,20.8,12.3,29.76,North,0,0.0,0.0,69,0.00,,SKC,0.00,VWS V13.00,2013-02-22 14:41:00,
2013-02-22 07:46:00,20.8,12.3,29.76,North,0,0.0,0.0,69,0.00,,SKC,0.00,VWS V13.00,2013-02-22 14:46:00,
2013-02-22 07:51:00,21.0,12.1,29.76,North,0,0.0,0.0,68,0.00,,SKC,0.00,VWS V13.00,2013-02-22 14:51:00,
2013-02-22 07:56:00,21.2,12.3,29.76,North,0,0.0,0.0,68,0.00,,SKC,0.00,VWS V13.00,2013-02-22 14:56:00,
2013-02-22 08:01:00,21.2,12.3,29.79,North,0,0.0,0.0,68,0.00,,SKC,0.00,VWS V13.00,2013-02-22 15:01:00,
2013-02-22 08:06:00,21.4,12.1,29.79,North,0,0.0,0.0,67,0.00,,SKC,0.00,VWS V13.00,2013-02-22 15:06:00,
2013-02-22 08:11:00,21.6,12.3,29.79,North,0,0.0,0.0,67,0.00,,SKC,0.00,VWS V13.00,2013-02-22 15:11:00,
2013-02-22 08:16:00,21.7,12.5,29.79,North,0,0.0,0.0,67,0.00,,SKC,0.00,VWS V13.00,2013-02-22 15:16:00,
2013-02-22 08:21:00,21.9,12.7,29.79,North,0,0.0,0.0,67,0.00,,SKC,0.00,VWS V13.00,2013-02-22 15:21:00,
2013-02-22 08:26:00,21.9,12.3,29.79,North,0,0.0,0.0,66,0.00,,SKC,0.00,VWS V13.00,2013-02-22 15:26:00,
2013-02-22 08:31:00,21.9,12.3,29.79,North,0,0.0,0.0,66,0.00,,SKC,0.00,VWS V13.00,2013-02-22 15:31:00,
2013-02-22 08:36:00,21.7,12.1,29.79,North,0,0.0,0.0,66,0.00,,SKC,0.00,VWS V13.00,2013-02-22 15:36:00,
2013-02-22 08:41:00,21.4,11.8,29.79,North,0,0.0,0.0,66,0.00,,SKC,0.00,VWS V13.00,2013-02-22 15:41:00,
2013-02-22 08:46:00,21.4,11.8,29.79,North,0,0.0,0.0,66,0.00,,SKC,0.00,VWS V13.00,2013-02-22 15:46:00,
2013-02-22 08:51:00,21.6,12.3,29.79,North,0,0.0,0.0,67,0.00,,SKC,0.00,VWS V13.00,2013-02-22 15:51:00,
2013-02-22 08:56:00,21.9,13.0,29.79,North,0,0.0,0.0,68,0.00,,SKC,0.00,VWS V13.00,2013-02-22 15:56:00,
2013-02-22 09:01:00,21.9,13.0,29.79,North,0,0.0,0.0,68,0.00,,SKC,0.00,VWS V13.00,2013-02-22 16:01:00,
2013-02-22 09:06:00,22.1,13.2,29.79,North,0,0.0,0.0,68,0.00,,SKC,0.00,VWS V13.00,2013-02-22 16:06:00,
2013-02-22 09:11:00,22.1,13.2,29.82,North,0,0.0,0.0,68,0.00,,SKC,0.00,VWS V13.00,2013-02-22 16:11:00,
2013-02-22 09:16:00,22.5,13.5,29.82,North,0,0.0,0.0,68,0.00,,SKC,0.00,VWS V13.00,2013-02-22 16:16:00,
2013-02-22 09:21:00,22.8,14.2,29.82,North,0,0.0,0.0,69,0.00,,SKC,0.00,VWS V13.00,2013-02-22 16:21:00,
2013-02-22 09:26:00,23.0,14.4,29.79,North,0,0.0,0.0,69,0.00,,SKC,0.00,VWS V13.00,2013-02-22 16:26:00,
2013-02-22 09:31:00,23.4,14.4,29.79,North,0,0.0,0.0,68,0.00,,SKC,0.00,VWS V13.00,2013-02-22 16:31:00,
2013-02-22 09:36:00,23.4,14.0,29.79,North,0,0.0,0.0,67,0.00,,SKC,0.00,VWS V13.00,2013-02-22 16:36:00,
2013-02-22 09:42:00,23.4,14.0,29.82,North,0,0.0,0.0,67,0.00,,SKC,0.00,VWS V13.00,2013-02-22 16:42:00,
2013-02-22 09:47:00,23.4,14.0,29.82,North,0,0.0,0.0,67,0.00,,SKC,0.00,VWS V13.00,2013-02-22 16:47:00,
2013-02-22 09:52:00,23.7,14.4,29.82,North,0,0.0,0.0,67,0.00,,SKC,0.00,VWS V13.00,2013-02-22 16:52:00,
2013-02-22 09:57:00,24.3,14.9,29.82,North,0,0.0,0.0,67,0.00,,SKC,0.00,VWS V13.00,2013-02-22 16:57:00,
2013-02-22 10:02:00,25.2,15.8,29.82,North,0,0.0,0.0,67,0.00,,SKC,0.00,VWS V13.00,2013-02-22 17:02:00,
2013-02-22 10:07:00,25.5,15.8,29.82,North,0,0.0,0.0,66,0.00,,SKC,0.00,VWS V13.00,2013-02-22 17:07:00,
2013-02-22 10:12:00,25.3,15.2,29.82,North,0,0.0,0.0,65,0.00,,SKC,0.00,VWS V13.00,2013-02-22 17:12:00,
2013-02-22 10:17:00,25.5,15.8,29.82,North,0,0.0,0.0,66,0.00,,SKC,0.00,VWS V13.00,2013-02-22 17:17:00,
2013-02-22 10:22:00,25.5,15.4,29.82,North,0,0.0,0.0,65,0.00,,SKC,0.00,VWS V13.00,2013-02-22 17:22:00,
2013-02-22 10:27:00,25.5,15.1,29.82,North,0,0.0,0.0,64,0.00,,SKC,0.00,VWS V13.00,2013-02-22 17:27:00,
2013-02-22 10:32:00,25.5,14.3,29.82,North,0,0.0,0.0,62,0.00,,SKC,0.00,VWS V13.00,2013-02-22 17:32:00,
2013-02-22 10:37:00,25.9,14.7,29.82,North,0,0.0,0.0,62,0.00,,SKC,0.00,VWS V13.00,2013-02-22 17:37:00,
2013-02-22 10:42:00,26.1,14.1,29.82,North,0,0.0,0.0,60,0.00,,SKC,0.00,VWS V13.00,2013-02-22 17:42:00,
2013-02-22 10:47:00,26.2,14.3,29.82,North,0,0.0,0.0,60,0.00,,SKC,0.00,VWS V13.00,2013-02-22 17:47:00,
2013-02-22 10:52:00,26.2,13.9,29.82,North,0,0.0,0.0,59,0.00,,SKC,0.00,VWS V13.00,2013-02-22 17:52:00,
2013-02-22 10:57:00,25.9,13.1,29.82,North,0,0.0,0.0,58,0.00,,SKC,0.00,VWS V13.00,2013-02-22 17:57:00,
2013-02-22 11:02:00,25.9,12.8,29.82,North,0,0.0,0.0,57,0.00,,SKC,0.00,VWS V13.00,2013-02-22 18:02:00,
2013-02-22 11:07:00,26.2,13.1,29.82,North,0,0.0,0.0,57,0.00,,SKC,0.00,VWS V13.00,2013-02-22 18:07:00,
2013-02-22 11:12:00,26.4,13.3,29.82,North,0,0.0,0.0,57,0.00,,SKC,0.00,VWS V13.00,2013-02-22 18:12:00,
2013-02-22 11:17:00,26.4,13.3,29.82,North,0,0.0,0.0,57,0.00,,SKC,0.00,VWS V13.00,2013-02-22 18:17:00,
2013-02-22 11:22:00,26.4,12.9,29.82,North,0,0.0,0.0,56,0.00,,SKC,0.00,VWS V13.00,2013-02-22 18:22:00,
2013-02-22 11:27:00,26.4,12.9,29.82,North,0,0.0,0.0,56,0.00,,SKC,0.00,VWS V13.00,2013-02-22 18:27:00,
2013-02-22 11:32:00,26.8,13.6,29.82,North,0,0.0,0.0,57,0.00,,SKC,0.00,VWS V13.00,2013-02-22 18:32:00,
2013-02-22 11:37:00,27.1,13.5,29.82,North,0,0.0,0.0,56,0.00,,SKC,0.00,VWS V13.00,2013-02-22 18:37:00,
2013-02-22 11:42:00,27.3,13.7,29.82,North,0,0.0,0.0,56,0.00,,SKC,0.00,VWS V13.00,2013-02-22 18:42:00,
2013-02-22 11:47:00,27.5,13.9,29.82,North,0,0.0,0.0,56,0.00,,SKC,0.00,VWS V13.00,2013-02-22 18:47:00,
2013-02-22 11:52:00,27.7,13.6,29.82,North,0,0.0,0.0,55,0.00,,SKC,0.00,VWS V13.00,2013-02-22 18:52:00,
2013-02-22 11:57:00,27.7,13.2,29.82,North,0,0.0,0.0,54,0.00,,SKC,0.00,VWS V13.00,2013-02-22 18:57:00,
2013-02-22 12:02:00,28.0,14.0,29.82,North,0,0.0,0.0,55,0.00,,SKC,0.00,VWS V13.00,2013-02-22 19:02:00,
2013-02-22 12:07:00,28.4,13.5,29.82,North,0,0.0,0.0,53,0.00,,SKC,0.00,VWS V13.00,2013-02-22 19:07:00,
2013-02-22 12:12:00,28.6,12.8,29.82,North,0,0.0,0.0,51,0.00,,SKC,0.00,VWS V13.00,2013-02-22 19:12:00,
2013-02-22 12:17:00,28.6,12.8,29.82,North,0,0.0,0.0,51,0.00,,SKC,0.00,VWS V13.00,2013-02-22 19:17:00,
2013-02-22 12:22:00,29.1,12.8,29.82,North,0,0.0,0.0,50,0.00,,SKC,0.00,VWS V13.00,2013-02-22 19:22:00,
2013-02-22 12:28:00,28.8,12.5,29.82,North,0,0.0,0.0,50,0.00,,SKC,0.00,VWS V13.00,2013-02-22 19:28:00,
2013-02-22 12:33:00,28.6,12.8,29.82,North,0,0.0,0.0,51,0.00,,SKC,0.00,VWS V13.00,2013-02-22 19:33:00,
2013-02-22 12:38:00,28.4,13.0,29.82,North,0,0.0,0.0,52,0.00,,SKC,0.00,VWS V13.00,2013-02-22 19:38:00,
2013-02-22 12:43:00,28.6,12.8,29.82,North,0,0.0,0.0,51,0.00,,SKC,0.00,VWS V13.00,2013-02-22 19:43:00,
2013-02-22 12:48:00,28.4,13.0,29.82,North,0,0.0,0.0,52,0.00,,SKC,0.00,VWS V13.00,2013-02-22 19:48:00,
2013-02-22 12:53:00,28.6,13.2,29.82,North,0,0.0,0.0,52,0.00,,SKC,0.00,VWS V13.00,2013-02-22 19:53:00,
2013-02-22 12:58:00,28.2,12.4,29.82,North,0,0.0,0.0,51,0.00,,SKC,0.00,VWS V13.00,2013-02-22 19:58:00,
2013-02-22 13:03:00,28.8,12.9,29.82,North,0,0.0,0.0,51,0.00,,SKC,0.00,VWS V13.00,2013-02-22 20:03:00,
2013-02-22 13:08:00,29.7,13.3,29.82,North,0,0.0,0.0,50,0.00,,SKC,0.00,VWS V13.00,2013-02-22 20:08:00,
2013-02-22 13:13:00,30.6,13.7,29.82,North,0,0.0,0.0,49,0.00,,SKC,0.00,VWS V13.00,2013-02-22 20:13:00,
2013-02-22 13:18:00,30.9,13.6,29.82,North,0,0.0,0.0,48,0.00,,SKC,0.00,VWS V13.00,2013-02-22 20:18:00,
2013-02-22 13:23:00,30.2,12.9,29.82,North,0,0.0,0.0,48,0.00,,SKC,0.00,VWS V13.00,2013-02-22 20:23:00,
2013-02-22 13:28:00,29.5,13.6,29.82,North,0,0.0,0.0,51,0.00,,SKC,0.00,VWS V13.00,2013-02-22 20:28:00,
2013-02-22 13:33:00,29.3,13.4,29.82,North,0,0.0,0.0,51,0.00,,SKC,0.00,VWS V13.00,2013-02-22 20:33:00,
2013-02-22 13:38:00,29.5,12.7,29.82,North,0,0.0,0.0,49,0.00,,SKC,0.00,VWS V13.00,2013-02-22 20:38:00,
2013-02-22 13:43:00,29.5,13.1,29.82,North,0,0.0,0.0,50,0.00,,SKC,0.00,VWS V13.00,2013-02-22 20:43:00,
2013-02-22 13:49:00,29.5,12.7,29.82,North,0,0.0,0.0,49,0.00,,SKC,0.00,VWS V13.00,2013-02-22 20:49:00,
2013-02-22 13:54:00,29.3,12.5,29.82,North,0,0.0,0.0,49,0.00,,SKC,0.00,VWS V13.00,2013-02-22 20:54:00,
2013-02-22 13:59:00,29.3,13.0,29.82,North,0,0.0,0.0,50,0.00,,SKC,0.00,VWS V13.00,2013-02-22 20:59:00,
2013-02-22 14:04:00,28.6,13.2,29.82,North,0,0.0,0.0,52,0.00,,SKC,0.00,VWS V13.00,2013-02-22 21:04:00,
2013-02-22 14:09:00,27.9,13.4,29.82,North,0,0.0,0.0,54,0.00,,SKC,0.00,VWS V13.00,2013-02-22 21:09:00,
2013-02-22 14:14:00,27.5,13.1,29.82,North,0,0.0,0.0,54,0.00,,SKC,0.00,VWS V13.00,2013-02-22 21:14:00,
2013-02-22 14:19:00,27.5,13.5,29.82,North,0,0.0,0.0,55,0.00,,SKC,0.00,VWS V13.00,2013-02-22 21:19:00,
2013-02-22 14:24:00,27.0,12.6,29.82,North,0,0.0,0.0,54,0.00,,SKC,0.00,VWS V13.00,2013-02-22 21:24:00,
2013-02-22 14:29:00,26.4,12.5,29.82,North,0,0.0,0.0,55,0.00,,SKC,0.00,VWS V13.00,2013-02-22 21:29:00,
2013-02-22 14:34:00,26.2,12.7,29.82,North,0,0.0,0.0,56,0.00,,SKC,0.00,VWS V13.00,2013-02-22 21:34:00,
2013-02-22 14:39:00,26.2,11.9,29.82,North,0,0.0,0.0,54,0.00,,SKC,0.00,VWS V13.00,2013-02-22 21:39:00,
2013-02-22 14:44:00,26.1,11.7,29.82,North,0,0.0,0.0,54,0.00,,SKC,0.00,VWS V13.00,2013-02-22 21:44:00,
2013-02-22 14:49:00,26.2,12.3,29.82,North,0,0.0,0.0,55,0.00,,SKC,0.00,VWS V13.00,2013-02-22 21:49:00,
2013-02-22 14:54:00,26.2,12.3,29.82,North,0,0.0,0.0,55,0.00,,SKC,0.00,VWS V13.00,2013-02-22 21:54:00,
2013-02-22 14:59:00,26.2,12.3,29.82,North,0,0.0,0.0,55,0.00,,SKC,0.00,VWS V13.00,2013-02-22 21:59:00,
2013-02-22 15:04:00,26.4,12.9,29.82,North,0,0.0,0.0,56,0.00,,SKC,0.00,VWS V13.00,2013-02-22 22:04:00,
2013-02-22 15:09:00,26.4,12.9,29.82,North,0,0.0,0.0,56,0.00,,SKC,0.00,VWS V13.00,2013-02-22 22:09:00,
2013-02-22 15:14:00,26.4,12.9,29.82,North,0,0.0,0.0,56,0.00,,SKC,0.00,VWS V13.00,2013-02-22 22:14:00,
2013-02-22 15:19:00,25.7,11.4,29.82,North,0,0.0,0.0,54,0.00,,SKC,0.00,VWS V13.00,2013-02-22 22:19:00,
2013-02-22 15:24:00,25.5,11.6,29.82,North,0,0.0,0.0,55,0.00,,SKC,0.00,VWS V13.00,2013-02-22 22:24:00,
2013-02-22 15:29:00,25.7,11.8,29.82,North,0,0.0,0.0,55,0.00,,SKC,0.00,VWS V13.00,2013-02-22 22:29:00,
2013-02-22 15:34:00,25.9,11.5,29.82,North,0,0.0,0.0,54,0.00,,SKC,0.00,VWS V13.00,2013-02-22 22:34:00,
2013-02-22 15:39:00,25.7,10.9,29.82,North,0,0.0,0.0,53,0.00,,SKC,0.00,VWS V13.00,2013-02-22 22:39:00,
2013-02-22 15:44:00,25.5,10.8,29.82,North,0,0.0,0.0,53,0.00,,SKC,0.00,VWS V13.00,2013-02-22 22:44:00,
2013-02-22 15:49:00,25.7,10.9,29.82,North,0,0.0,0.0,53,0.00,,SKC,0.00,VWS V13.00,2013-02-22 22:49:00,
2013-02-22 15:54:00,26.1,11.3,29.82,North,0,0.0,0.0,53,0.00,,SKC,0.00,VWS V13.00,2013-02-22 22:54:00,
2013-02-22 16:00:00,26.1,10.9,29.82,North,0,0.0,0.0,52,0.00,,SKC,0.00,VWS V13.00,2013-02-22 23:00:00,
2013-02-22 16:05:00,25.9,11.1,29.82,North,0,0.0,0.0,53,0.00,,SKC,0.00,VWS V13.00,2013-02-22 23:05:00,
2013-02-22 16:10:00,26.1,11.3,29.82,North,0,0.0,0.0,53,0.00,,SKC,0.00,VWS V13.00,2013-02-22 23:10:00,
2013-02-22 16:15:00,26.1,11.7,29.82,North,0,0.0,0.0,54,0.00,,SKC,0.00,VWS V13.00,2013-02-22 23:15:00,
2013-02-22 16:20:00,26.1,12.1,29.82,North,0,0.0,0.0,55,0.00,,SKC,0.00,VWS V13.00,2013-02-22 23:20:00,
2013-02-22 16:25:00,26.1,12.1,29.82,North,0,0.0,0.0,55,0.00,,SKC,0.00,VWS V13.00,2013-02-22 23:25:00,
2013-02-22 16:30:00,25.9,11.5,29.82,North,0,0.0,0.0,54,0.00,,SKC,0.00,VWS V13.00,2013-02-22 23:30:00,
2013-02-22 16:35:00,25.7,10.9,29.82,North,0,0.0,0.0,53,0.00,,SKC,0.00,VWS V13.00,2013-02-22 23:35:00,
2013-02-22 16:40:00,25.5,10.4,29.82,North,0,0.0,0.0,52,0.00,,SKC,0.00,VWS V13.00,2013-02-22 23:40:00,
2013-02-22 16:45:00,25.3,10.6,29.82,North,0,0.0,0.0,53,0.00,,SKC,0.00,VWS V13.00,2013-02-22 23:45:00,
2013-02-22 16:50:00,25.2,10.9,29.82,North,0,0.0,0.0,54,0.00,,SKC,0.00,VWS V13.00,2013-02-22 23:50:00,
2013-02-22 16:55:00,25.2,11.3,29.82,North,0,0.0,0.0,55,0.00,,SKC,0.00,VWS V13.00,2013-02-22 23:55:00,
2013-02-22 17:00:00,25.2,11.7,29.82,North,0,0.0,0.0,56,0.00,,SKC,0.00,VWS V13.00,2013-02-23 00:00:00,
2013-02-22 17:05:00,25.2,11.7,29.82,North,0,0.0,0.0,56,0.00,,SKC,0.00,VWS V13.00,2013-02-23 00:05:00,
2013-02-22 17:10:00,25.2,11.3,29.82,North,0,0.0,0.0,55,0.00,,SKC,0.00,VWS V13.00,2013-02-23 00:10:00,
2013-02-22 17:15:00,25.5,11.6,29.82,North,0,0.0,0.0,55,0.00,,SKC,0.00,VWS V13.00,2013-02-23 00:15:00,
2013-02-22 17:20:00,25.3,10.6,29.82,North,0,0.0,0.0,53,0.00,,SKC,0.00,VWS V13.00,2013-02-23 00:20:00,
2013-02-22 17:25:00,25.3,10.2,29.82,North,0,0.0,0.0,52,0.00,,SKC,0.00,VWS V13.00,2013-02-23 00:25:00,
2013-02-22 17:30:00,25.3,10.2,29.82,North,0,0.0,0.0,52,0.00,,SKC,0.00,VWS V13.00,2013-02-23 00:30:00,
2013-02-22 17:35:00,25.5,9.9,29.82,North,0,0.0,0.0,51,0.00,,SKC,0.00,VWS V13.00,2013-02-23 00:35:00,
2013-02-22 17:40:00,25.3,9.8,29.82,North,0,0.0,0.0,51,0.00,,SKC,0.00,VWS V13.00,2013-02-23 00:40:00,
2013-02-22 17:45:00,25.3,9.8,29.82,North,0,0.0,0.0,51,0.00,,SKC,0.00,VWS V13.00,2013-02-23 00:45:00,
2013-02-22 17:50:00,25.2,9.6,29.82,North,0,0.0,0.0,51,0.00,,SKC,0.00,VWS V13.00,2013-02-23 00:50:00,
2013-02-22 17:55:00,24.8,9.2,29.82,North,0,0.0,0.0,51,0.00,,SKC,0.00,VWS V13.00,2013-02-23 00:55:00,
2013-02-22 18:01:00,24.6,9.5,29.82,North,0,0.0,0.0,52,0.00,,SKC,0.00,VWS V13.00,2013-02-23 01:01:00,
2013-02-22 18:06:00,24.4,9.4,29.82,North,0,0.0,0.0,52,0.00,,SKC,0.00,VWS V13.00,2013-02-23 01:06:00,
2013-02-22 18:11:00,24.4,9.4,29.82,North,0,0.0,0.0,52,0.00,,SKC,0.00,VWS V13.00,2013-02-23 01:11:00,
2013-02-22 18:16:00,24.1,9.0,29.82,North,0,0.0,0.0,52,0.00,,SKC,0.00,VWS V13.00,2013-02-23 01:16:00,
2013-02-22 18:21:00,23.7,8.7,29.82,North,0,0.0,0.0,52,0.00,,SKC,0.00,VWS V13.00,2013-02-23 01:21:00,
2013-02-22 18:26:00,23.4,8.8,29.82,North,0,0.0,0.0,53,0.00,,SKC,0.00,VWS V13.00,2013-02-23 01:26:00,
2013-02-22 18:31:00,22.8,8.3,29.82,North,0,0.0,0.0,53,0.00,,SKC,0.00,VWS V13.00,2013-02-23 01:31:00,
2013-02-22 18:36:00,22.1,8.0,29.82,North,0,0.0,0.0,54,0.00,,SKC,0.00,VWS V13.00,2013-02-23 01:36:00,
2013-02-22 18:41:00,21.4,7.7,29.82,North,0,0.0,0.0,55,0.00,,SKC,0.00,VWS V13.00,2013-02-23 01:41:00,
2013-02-22 18:46:00,21.0,7.8,29.82,North,0,0.0,0.0,56,0.00,,SKC,0.00,VWS V13.00,2013-02-23 01:46:00,
2013-02-22 18:51:00,20.7,7.8,29.82,North,0,0.0,0.0,57,0.00,,SKC,0.00,VWS V13.00,2013-02-23 01:51:00,
2013-02-22 18:56:00,20.3,7.9,29.82,North,0,0.0,0.0,58,0.00,,SKC,0.00,VWS V13.00,2013-02-23 01:56:00,
2013-02-22 19:01:00,20.1,8.1,29.82,North,0,0.0,0.0,59,0.00,,SKC,0.00,VWS V13.00,2013-02-23 02:01:00,
2013-02-22 19:06:00,20.1,8.1,29.82,North,0,0.0,0.0,59,0.00,,SKC,0.00,VWS V13.00,2013-02-23 02:06:00,
2013-02-22 19:11:00,20.1,8.5,29.82,North,0,0.0,0.0,60,0.00,,SKC,0.00,VWS V13.00,2013-02-23 02:11:00,
2013-02-22 19:16:00,20.1,8.8,29.82,North,0,0.0,0.0,61,0.00,,SKC,0.00,VWS V13.00,2013-02-23 02:16:00,
2013-02-22 19:21:00,20.1,8.8,29.82,North,0,0.0,0.0,61,0.00,,SKC,0.00,VWS V13.00,2013-02-23 02:21:00,
2013-02-22 19:26:00,20.3,9.0,29.82,North,0,0.0,0.0,61,0.00,,SKC,0.00,VWS V13.00,2013-02-23 02:26:00,
2013-02-22 19:31:00,20.3,9.0,29.82,North,0,0.0,0.0,61,0.00,,SKC,0.00,VWS V13.00,2013-02-23 02:31:00,
2013-02-22 19:36:00,20.3,9.0,29.82,North,0,0.0,0.0,61,0.00,,SKC,0.00,VWS V13.00,2013-02-23 02:36:00,
2013-02-22 19:41:00,20.3,9.0,29.82,North,0,0.0,0.0,61,0.00,,SKC,0.00,VWS V13.00,2013-02-23 02:41:00,
2013-02-22 19:46:00,20.3,9.0,29.82,North,0,0.0,0.0,61,0.00,,SKC,0.00,VWS V13.00,2013-02-23 02:46:00,
2013-02-22 19:51:00,20.3,9.0,29.82,North,0,0.0,0.0,61,0.00,,SKC,0.00,VWS V13.00,2013-02-23 02:51:00,
2013-02-22 19:56:00,20.3,8.6,29.82,North,0,0.0,0.0,60,0.00,,SKC,0.00,VWS V13.00,2013-02-23 02:56:00,
2013-02-22 20:01:00,20.3,8.6,29.82,North,0,0.0,0.0,60,0.00,,SKC,0.00,VWS V13.00,2013-02-23 03:01:00,
2013-02-22 20:06:00,20.3,8.3,29.82,North,0,0.0,0.0,59,0.00,,SKC,0.00,VWS V13.00,2013-02-23 03:06:00,
2013-02-22 20:11:00,20.1,8.5,29.82,North,0,0.0,0.0,60,0.00,,SKC,0.00,VWS V13.00,2013-02-23 03:11:00,
2013-02-22 20:16:00,19.9,7.9,29.82,North,0,0.0,0.0,59,0.00,,SKC,0.00,VWS V13.00,2013-02-23 03:16:00,
2013-02-22 20:21:00,19.6,8.0,29.82,North,0,0.0,0.0,60,0.00,,SKC,0.00,VWS V13.00,2013-02-23 03:21:00,
2013-02-22 20:26:00,19.8,8.1,29.82,North,0,0.0,0.0,60,0.00,,SKC,0.00,VWS V13.00,2013-02-23 03:26:00,
2013-02-22 20:31:00,19.9,8.7,29.82,North,0,0.0,0.0,61,0.00,,SKC,0.00,VWS V13.00,2013-02-23 03:31:00,
2013-02-22 20:37:00,19.4,8.2,29.82,North,0,0.0,0.0,61,0.00,,SKC,0.00,VWS V13.00,2013-02-23 03:37:00,
2013-02-22 20:42:00,19.0,7.8,29.82,North,0,0.0,0.0,61,0.00,,SKC,0.00,VWS V13.00,2013-02-23 03:42:00,
2013-02-22 20:47:00,18.9,8.0,29.82,North,0,0.0,0.0,62,0.00,,SKC,0.00,VWS V13.00,2013-02-23 03:47:00,
2013-02-22 20:52:00,18.5,7.7,29.82,North,0,0.0,0.0,62,0.00,,SKC,0.00,VWS V13.00,2013-02-23 03:52:00,
2013-02-22 20:57:00,18.5,7.7,29.82,North,0,0.0,0.0,62,0.00,,SKC,0.00,VWS V13.00,2013-02-23 03:57:00,
2013-02-22 21:02:00,18.5,7.7,29.82,North,0,0.0,0.0,62,0.00,,SKC,0.00,VWS V13.00,2013-02-23 04:02:00,
2013-02-22 21:07:00,18.5,8.0,29.82,North,0,0.0,0.0,63,0.00,,SKC,0.00,VWS V13.00,2013-02-23 04:07:00,
2013-02-22 21:12:00,18.9,8.7,29.82,North,0,0.0,0.0,64,0.00,,SKC,0.00,VWS V13.00,2013-02-23 04:12:00,
2013-02-22 21:17:00,19.2,9.1,29.82,North,0,0.0,0.0,64,0.00,,SKC,0.00,VWS V13.00,2013-02-23 04:17:00,
2013-02-22 21:22:00,19.4,9.2,29.82,North,0,0.0,0.0,64,0.00,,SKC,0.00,VWS V13.00,2013-02-23 04:22:00,
2013-02-22 21:27:00,19.6,9.4,29.82,North,0,0.0,0.0,64,0.00,,SKC,0.00,VWS V13.00,2013-02-23 04:27:00,
2013-02-22 21:32:00,19.8,9.6,29.82,North,0,0.0,0.0,64,0.00,,SKC,0.00,VWS V13.00,2013-02-23 04:32:00,
2013-02-22 21:37:00,19.9,9.4,29.82,North,0,0.0,0.0,63,0.00,,SKC,0.00,VWS V13.00,2013-02-23 04:37:00,
2013-02-22 21:42:00,20.1,9.6,29.82,North,0,0.0,0.0,63,0.00,,SKC,0.00,VWS V13.00,2013-02-23 04:42:00,
2013-02-22 21:47:00,19.9,9.0,29.82,North,0,0.0,0.0,62,0.00,,SKC,0.00,VWS V13.00,2013-02-23 04:47:00,
2013-02-22 21:52:00,19.9,9.0,29.82,North,0,0.0,0.0,62,0.00,,SKC,0.00,VWS V13.00,2013-02-23 04:52:00,
2013-02-22 21:57:00,19.6,8.3,29.82,North,0,0.0,0.0,61,0.00,,SKC,0.00,VWS V13.00,2013-02-23 04:57:00,
2013-02-22 22:00:00,19.6,8.3,29.82,North,0,0.0,0.0,61,0.00,,SKC,0.00,VWS V13.00,2013-02-23 05:00:00,
2013-02-22 22:01:00,19.4,8.2,29.82,North,0,0.0,0.0,61,0.00,,SKC,0.00,VWS V13.00,2013-02-23 05:01:00,
2013-02-22 22:06:00,19.0,7.8,29.82,North,0,0.0,0.0,61,0.00,,SKC,0.00,VWS V13.00,2013-02-23 05:06:00,
2013-02-22 22:11:00,18.7,7.5,29.82,North,0,0.0,0.0,61,0.00,,SKC,0.00,VWS V13.00,2013-02-23 05:11:00,
2013-02-22 22:16:00,18.5,7.7,29.79,North,0,0.0,0.0,62,0.00,,SKC,0.00,VWS V13.00,2013-02-23 05:16:00,
2013-02-22 22:21:00,18.3,7.8,29.79,North,0,0.0,0.0,63,0.00,,SKC,0.00,VWS V13.00,2013-02-23 05:21:00,
2013-02-22 22:26:00,18.1,7.7,29.79,North,0,0.0,0.0,63,0.00,,SKC,0.00,VWS V13.00,2013-02-23 05:26:00,
2013-02-22 22:31:00,17.8,7.3,29.79,North,0,0.0,0.0,63,0.00,,SKC,0.00,VWS V13.00,2013-02-23 05:31:00,
2013-02-22 22:36:00,17.8,7.3,29.79,North,0,0.0,0.0,63,0.00,,SKC,0.00,VWS V13.00,2013-02-23 05:36:00,
2013-02-22 22:41:00,17.6,7.5,29.79,North,0,0.0,0.0,64,0.00,,SKC,0.00,VWS V13.00,2013-02-23 05:41:00,
2013-02-22 22:46:00,17.6,7.5,29.79,North,0,0.0,0.0,64,0.00,,SKC,0.00,VWS V13.00,2013-02-23 05:46:00,
2013-02-22 22:51:00,17.6,7.8,29.79,North,0,0.0,0.0,65,0.00,,SKC,0.00,VWS V13.00,2013-02-23 05:51:00,
2013-02-22 22:56:00,17.6,7.8,29.79,North,0,0.0,0.0,65,0.00,,SKC,0.00,VWS V13.00,2013-02-23 05:56:00,
2013-02-22 23:01:00,17.8,8.0,29.79,North,0,0.0,0.0,65,0.00,,SKC,0.00,VWS V13.00,2013-02-23 06:01:00,
2013-02-22 23:06:00,17.8,8.0,29.79,North,0,0.0,0.0,65,0.00,,SKC,0.00,VWS V13.00,2013-02-23 06:06:00,
2013-02-22 23:11:00,17.8,8.4,29.79,North,0,0.0,0.0,66,0.00,,SKC,0.00,VWS V13.00,2013-02-23 06:11:00,
2013-02-22 23:16:00,18.1,8.7,29.79,North,0,0.0,0.0,66,0.00,,SKC,0.00,VWS V13.00,2013-02-23 06:16:00,
2013-02-22 23:21:00,18.3,8.9,29.79,North,0,0.0,0.0,66,0.00,,SKC,0.00,VWS V13.00,2013-02-23 06:21:00,
2013-02-22 23:26:00,18.3,8.9,29.79,North,0,0.0,0.0,66,0.00,,SKC,0.00,VWS V13.00,2013-02-23 06:26:00,
2013-02-22 23:31:00,18.1,8.7,29.79,North,0,0.0,0.0,66,0.00,,SKC,0.00,VWS V13.00,2013-02-23 06:31:00,
2013-02-22 23:36:00,18.0,8.5,29.79,North,0,0.0,0.0,66,0.00,,SKC,0.00,VWS V13.00,2013-02-23 06:36:00,
2013-02-22 23:41:00,17.8,8.4,29.79,North,0,0.0,0.0,66,0.00,,SKC,0.00,VWS V13.00,2013-02-23 06:41:00,
2013-02-22 23:46:00,18.1,8.7,29.79,North,0,0.0,0.0,66,0.00,,SKC,0.00,VWS V13.00,2013-02-23 06:46:00,
2013-02-22 23:51:00,18.1,8.7,29.79,North,0,0.0,0.0,66,0.00,,SKC,0.00,VWS V13.00,2013-02-23 06:51:00,
2013-02-22 23:56:00,18.1,8.7,29.79,North,0,0.0,0.0,66,0.00,,SKC,0.00,VWS V13.00,2013-02-23 06:56:00,